Tracking 35331 objects as of 14-Sep-2026
HD Live streaming from Space Station
objects crossing your sky now

SL-3 R/B

Track SL-3 R/B now!
10-day predictions


NORAD ID: 7275
Int'l Code: 1974-025B
Launch date: April 24, 1974
Source: Commonwealth of Independent States (former USSR) (CIS)
Launch site: PLESETSK MISSILE AND SPACE COMPLEX (PKMTR)

Note: This is a ROCKET BODY
Your satellite tracking list
Your tracking list is empty




NASA's NSSDC Master Catalog

Two Line Element Set (TLE):
1 07275U 74025B   26257.07814642 -.00000070  00000-0 -48779-4 0  9991
2 07275  81.2410 286.7415 0058611  95.1443 265.6419 14.07104630687694
Source of the keplerian elements: AFSPC